GFSCGP_500_temp_132.txt.gz
Temp
-16 -17 -17 -17 -18 -16 -14 -15 -14 -14 -14 -13 -14 -12 -11 -11 -10 -10 -10 -9 -9 -10 -9 -10 -7 -8 -7 -8 -8 -8 -9 -8 -8 -7 -7 -8 -8 -8 -8 -8 -7 -7 -7 -6
-16 -16 -17 -17 -17 -16 -15 -15 -15 -15 -13 -14 -14 -13 -12 -11 -11 -10 -10 -9 -9 -9 -10 -9 -6 -7 -7 -7 -8 -7 -7 -8 -7 -8 -8 -8 -8 -8 -8 -8 -7 -7 -7 -5
-15 -16 -17 -18 -17 -16 -16 -16 -15 -15 -15 -15 -15 -13 -12 -12 -11 -11 -10 -10 -10 -10 -9 -9 -7 -7 -8 -8 -8 -8 -8 -8 -9 -9 -9 -8 -8 -8 -8 -8 -7 -7 -8 -8
-16 -16 -16 -17 -17 -16 -16 -15 -15 -15 -15 -15 -14 -13 -13 -12 -11 -10 -10 -10 -10 -10 -10 -9 -9 -9 -9 -9 -8 -8 -9 -10 -10 -9 -9 -9 -9 -9 -9 -9 -8 -8 -8 -9
-16 -18 -17 -17 -16 -17 -16 -15 -15 -15 -15 -15 -15 -13 -13 -13 -12 -10 -11 -13 -12 -11 -11 -10 -10 -10 -10 -9 -10 -11 -11 -10 -10 -9 -10 -9 -9 -9 -10 -10 -9 -9 -9 -10
-17 -17 -17 -17 -17 -17 -16 -16 -15 -15 -15 -15 -14 -15 -13 -13 -12 -13 -12 -11 -11 -13 -13 -13 -12 -12 -12 -12 -11 -10 -10 -10 -9 -9 -10 -10 -10 -11 -11 -11 -10 -10 -11 -10
-17 -17 -17 -17 -17 -17 -16 -15 -15 -15 -15 -14 -15 -15 -13 -14 -13 -12 -12 -12 -13 -14 -12 -12 -13 -12 -11 -11 -10 -10 -10 -10 -10 -10 -10 -11 -11 -11 -11 -11 -10 -10 -11 -11
-16 -16 -17 -17 -16 -16 -16 -16 -15 -15 -15 -14 -14 -14 -14 -14 -13 -12 -10 -11 -13 -12 -12 -12 -11 -11 -11 -11 -11 -11 -11 -10 -10 -10 -10 -11 -11 -11 -11 -12 -12 -11 -11 -11
-16 -16 -16 -16 -16 -16 -16 -15 -14 -15 -14 -13 -13 -14 -14 -13 -14 -14 -14 -13 -12 -12 -12 -11 -11 -11 -10 -11 -11 -11 -11 -11 -10 -11 -11 -11 -12 -12 -11 -11 -12 -13 -12 -13
-16 -16 -16 -16 -16 -15 -15 -15 -15 -14 -14 -13 -14 -14 -14 -13 -13 -14 -14 -14 -13 -13 -12 -12 -12 -11 -11 -11 -11 -11 -11 -11 -11 -11 -12 -12 -12 -12 -12 -12 -12 -12 -12 -12
-16 -16 -16 -16 -15 -15 -15 -15 -15 -15 -14 -14 -13 -13 -13 -13 -13 -14 -14 -14 -13 -13 -13 -12 -12 -11 -12 -12 -11 -12 -12 -12 -12 -12 -13 -13 -12 -12 -12 -13 -13 -13 -12 -12
-16 -16 -16 -16 -15 -15 -16 -15 -15 -15 -14 -14 -14 -14 -13 -13 -14 -14 -13 -13 -13 -13 -13 -13 -12 -12 -12 -12 -13 -13 -12 -13 -12 -12 -13 -13 -13 -13 -13 -13 -13 -13 -13 -13
-17 -15 -15 -16 -15 -14 -15 -15 -15 -15 -15 -14 -14 -14 -13 -14 -13 -13 -13 -14 -14 -13 -14 -14 -13 -13 -13 -13 -13 -13 -12 -13 -13 -13 -12 -13 -12 -12 -13 -13 -13 -13 -13 -13
-16 -16 -15 -15 -15 -15 -15 -15 -15 -15 -15 -15 -14 -14 -13 -14 -14 -14 -14 -14 -15 -14 -13 -13 -13 -14 -13 -13 -13 -13 -13 -13 -13 -13 -13 -13 -12 -12 -12 -13 -13 -13 -13 -13
-16 -16 -16 -15 -15 -15 -14 -15 -16 -15 -16 -15 -15 -14 -14 -14 -14 -15 -14 -14 -14 -14 -14 -14 -13 -13 -13 -13 -12 -13 -13 -13 -13 -12 -13 -13 -13 -12 -13 -13 -13 -13 -13 -14
-16 -16 -15 -15 -15 -15 -15 -15 -15 -16 -16 -16 -15 -15 -15 -15 -14 -14 -14 -14 -14 -14 -14 -14 -13 -13 -13 -13 -13 -13 -13 -13 -13 -13 -13 -13 -13 -13 -13 -14 -15 -15 -16 -16
-16 -16 -15 -15 -15 -15 -15 -16 -16 -16 -16 -16 -16 -16 -16 -15 -15 -15 -15 -14 -14 -13 -13 -14 -14 -14 -13 -14 -13 -13 -13 -13 -14 -14 -14 -14 -14 -14 -15 -16 -16 -16 -16 -16
-15 -16 -15 -16 -16 -17 -16 -15 -15 -15 -15 -15 -15 -15 -15 -15 -15 -15 -15 -14 -14 -14 -14 -14 -14 -14 -14 -14 -14 -14 -14 -14 -15 -15 -15 -15 -16 -16 -16 -16 -16 -16 -16 -16
-16 -16 -16 -16 -16 -16 -15 -15 -15 -16 -16 -15 -15 -15 -16 -15 -15 -15 -14 -14 -14 -14 -14 -14 -14 -14 -14 -15 -15 -15 -15 -16 -16 -17 -16 -16 -16 -16 -16 -16 -16 -15 -15 -15
-16 -15 -16 -16 -16 -16 -14 -16 -16 -16 -15 -15 -16 -15 -15 -15 -15 -14 -14 -14 -14 -14 -14 -14 -14 -15 -15 -15 -16 -16 -17 -17 -17 -17 -17 -17 -16 -16 -16 -15 -15 -15 -15 -15
-16 -16 -16 -16 -16 -16 -15 -16 -16 -16 -15 -15 -16 -15 -15 -15 -15 -15 -14 -14 -14 -14 -14 -14 -15 -15 -15 -15 -16 -16 -16 -17 -17 -16 -16 -16 -15 -15 -15 -15 -15 -15 -14 -14
-16 -16 -16 -16 -16 -16 -15 -16 -16 -16 -16 -16 -15 -15 -15 -15 -15 -14 -14 -14 -14 -14 -14 -14 -15 -15 -15 -15 -15 -15 -16 -16 -16 -16 -16 -15 -15 -15 -15 -15 -14 -14 -14 -14
-16 -16 -16 -16 -16 -16 -16 -16 -16 -16 -16 -16 -16 -15 -15 -15 -15 -14 -14 -14 -14 -14 -14 -14 -15 -15 -15 -15 -15 -15 -15 -15 -15 -15 -15 -15 -15 -15 -15 -14 -14 -14 -14 -14
-17 -17 -17 -17 -17 -16 -16 -16 -16 -16 -16 -16 -16 -16 -15 -15 -15 -14 -14 -14 -14 -14 -14 -14 -14 -14 -15 -15 -15 -14 -15 -15 -15 -15 -15 -15 -15 -14 -14 -14 -14 -14 -14 -14
-17 -17 -17 -17 -17 -17 -17 -17 -16 -16 -16 -16 -16 -15 -15 -15 -14 -14 -15 -14 -14 -14 -14 -14 -14 -14 -14 -14 -14 -14 -15 -15 -15 -15 -15 -15 -14 -14 -15 -14 -14 -15 -15 -14
-18 -17 -18 -17 -17 -16 -17 -17 -17 -16 -16 -16 -16 -15 -15 -15 -15 -15 -15 -14 -15 -14 -14 -14 -14 -14 -14 -14 -14 -15 -15 -15 -15 -15 -15 -14 -14 -14 -14 -15 -15 -15 -15 -16

GFSCGP_500_temp_135.txt.gz
Temp
-14 -13 -12 -12 -12 -12 -12 -12 -12 -10 -12 -13 -12 -10 -11 -11 -11 -12 -10 -10 -10 -9 -9 -9 -8 -8 -8 -7 -7 -8 -7 -7 -7 -6 -8 -8 -8 -8 -8 -8 -8 -8 -7 -7
-13 -13 -15 -16 -16 -15 -15 -16 -15 -13 -14 -13 -13 -12 -12 -11 -10 -10 -11 -10 -10 -10 -9 -8 -8 -7 -7 -8 -8 -8 -9 -9 -9 -8 -8 -8 -8 -8 -8 -8 -8 -8 -8 -7
-14 -14 -16 -17 -17 -17 -16 -16 -16 -15 -15 -14 -14 -13 -12 -12 -11 -11 -10 -10 -10 -9 -9 -9 -8 -8 -7 -7 -7 -8 -9 -8 -9 -9 -8 -8 -8 -8 -8 -8 -8 -7 -8 -8
-15 -15 -15 -17 -18 -18 -17 -15 -15 -14 -15 -15 -14 -14 -12 -13 -12 -11 -10 -10 -10 -9 -9 -9 -8 -8 -8 -7 -9 -9 -9 -9 -8 -9 -10 -10 -9 -9 -9 -8 -8 -7 -7 -8
-15 -15 -16 -16 -16 -17 -17 -17 -16 -14 -16 -15 -15 -15 -13 -14 -13 -12 -12 -11 -10 -10 -9 -9 -8 -8 -8 -8 -10 -10 -9 -9 -10 -10 -10 -10 -10 -10 -9 -8 -8 -8 -8 -8
-15 -16 -17 -16 -16 -17 -16 -16 -16 -16 -16 -15 -14 -15 -14 -14 -12 -12 -12 -11 -10 -10 -9 -9 -8 -7 -8 -10 -10 -10 -10 -9 -10 -11 -11 -11 -10 -10 -9 -9 -8 -9 -8 -8
-16 -16 -17 -17 -16 -16 -17 -16 -16 -16 -16 -15 -14 -15 -13 -13 -13 -14 -14 -12 -10 -10 -9 -9 -9 -11 -11 -11 -12 -12 -11 -11 -11 -11 -12 -10 -10 -10 -9 -10 -9 -9 -9 -9
-16 -16 -17 -17 -17 -16 -17 -16 -16 -15 -15 -15 -14 -15 -13 -14 -14 -14 -14 -13 -12 -12 -11 -10 -9 -10 -11 -10 -11 -11 -11 -11 -11 -11 -10 -10 -10 -10 -10 -10 -9 -9 -9 -9
-17 -16 -16 -16 -16 -17 -16 -17 -15 -15 -16 -15 -14 -14 -13 -13 -14 -14 -13 -13 -13 -13 -13 -12 -12 -10 -10 -11 -11 -11 -11 -10 -10 -10 -10 -10 -10 -11 -11 -10 -10 -10 -10 -10
-16 -16 -16 -17 -16 -16 -16 -16 -16 -15 -15 -14 -15 -14 -14 -13 -13 -13 -13 -13 -13 -13 -13 -13 -12 -11 -11 -11 -11 -11 -10 -10 -10 -10 -10 -10 -10 -11 -11 -11 -11 -11 -11 -10
-17 -16 -16 -16 -16 -16 -16 -16 -16 -16 -15 -15 -14 -13 -14 -13 -14 -14 -14 -14 -14 -13 -14 -12 -11 -10 -10 -11 -11 -11 -11 -10 -10 -11 -10 -11 -10 -11 -11 -11 -11 -11 -11 -11
-16 -16 -16 -16 -16 -16 -16 -16 -15 -16 -16 -15 -14 -14 -13 -14 -13 -14 -14 -14 -14 -14 -14 -13 -13 -12 -12 -12 -12 -12 -12 -12 -12 -12 -12 -12 -11 -12 -12 -12 -12 -12 -12 -12
-16 -16 -16 -16 -16 -15 -15 -16 -15 -16 -15 -15 -13 -14 -14 -14 -13 -13 -13 -13 -14 -14 -15 -13 -13 -13 -13 -12 -12 -12 -12 -12 -12 -12 -13 -13 -13 -13 -13 -13 -13 -13 -12 -12
-16 -16 -15 -15 -15 -15 -15 -15 -15 -15 -15 -15 -15 -15 -14 -14 -14 -14 -13 -14 -14 -14 -13 -14 -14 -14 -14 -14 -13 -13 -13 -13 -13 -13 -13 -12 -12 -12 -12 -12 -12 -12 -12 -12
-16 -15 -16 -15 -15 -15 -15 -15 -15 -15 -14 -14 -15 -14 -14 -14 -14 -14 -14 -14 -14 -14 -14 -13 -13 -13 -13 -13 -13 -13 -13 -13 -13 -13 -13 -13 -13 -12 -13 -12 -12 -13 -13 -12
-17 -15 -15 -15 -15 -15 -15 -15 -15 -15 -15 -15 -14 -14 -14 -14 -14 -15 -15 -14 -14 -14 -14 -14 -13 -13 -14 -14 -13 -13 -12 -12 -12 -12 -12 -12 -12 -12 -12 -13 -13 -13 -13 -14
-16 -15 -16 -16 -16 -15 -16 -15 -15 -15 -15 -15 -15 -15 -15 -16 -16 -15 -15 -14 -15 -14 -14 -14 -14 -14 -14 -14 -13 -13 -13 -12 -13 -13 -14 -14 -13 -13 -14 -15 -15 -15 -15 -15
-16 -17 -17 -17 -16 -16 -15 -15 -15 -15 -16 -16 -16 -15 -15 -16 -15 -14 -14 -14 -14 -14 -14 -14 -14 -14 -14 -13 -13 -13 -13 -14 -14 -15 -15 -16 -16 -16 -16 -16 -16 -16 -16 -15
-16 -16 -17 -17 -16 -16 -16 -16 -16 -16 -16 -16 -15 -14 -14 -14 -14 -14 -14 -14 -14 -15 -14 -14 -14 -14 -14 -14 -13 -14 -14 -14 -15 -16 -16 -16 -16 -16 -16 -16 -16 -16 -15 -15
-15 -15 -16 -16 -16 -17 -16 -17 -17 -16 -16 -15 -15 -15 -15 -15 -15 -15 -15 -15 -15 -14 -14 -14 -14 -14 -14 -14 -14 -14 -14 -15 -15 -15 -15 -16 -16 -16 -16 -16 -16 -15 -15 -15
-14 -15 -16 -17 -17 -15 -15 -16 -16 -16 -15 -15 -15 -15 -16 -16 -15 -15 -15 -15 -15 -14 -14 -14 -14 -14 -14 -14 -14 -14 -14 -14 -14 -15 -14 -15 -15 -15 -15 -15 -15 -15 -15 -14
-15 -15 -16 -16 -16 -16 -15 -16 -16 -15 -15 -15 -16 -16 -16 -16 -16 -15 -15 -14 -14 -14 -14 -14 -15 -14 -14 -14 -14 -14 -14 -14 -14 -14 -14 -15 -15 -15 -15 -15 -15 -14 -14 -15
-16 -16 -16 -16 -16 -16 -15 -16 -16 -16 -16 -16 -16 -16 -16 -16 -16 -15 -15 -15 -14 -14 -14 -14 -14 -14 -14 -13 -13 -14 -14 -14 -14 -14 -15 -15 -15 -15 -15 -14 -15 -15 -15 -15
-16 -16 -16 -16 -16 -16 -16 -16 -17 -17 -17 -16 -16 -16 -16 -16 -15 -15 -15 -15 -15 -14 -14 -14 -14 -14 -14 -14 -13 -13 -13 -14 -14 -14 -15 -15 -15 -15 -15 -15 -15 -15 -14 -15
-17 -16 -16 -16 -16 -16 -16 -16 -17 -17 -17 -17 -16 -16 -16 -16 -15 -15 -15 -15 -15 -14 -14 -14 -14 -14 -14 -13 -13 -13 -13 -14 -14 -14 -14 -14 -14 -15 -15 -15 -15 -15 -15 -15
-17 -17 -17 -17 -16 -17 -17 -17 -17 -17 -17 -16 -16 -16 -16 -16 -15 -15 -15 -15 -15 -14 -14 -14 -15 -15 -14 -14 -14 -14 -14 -14 -14 -14 -14 -14 -15 -15 -15 -15 -15 -15 -15 -15

GFSCGP_500_temp_138.txt.gz
Temp
-12 -12 -11 -11 -11 -11 -11 -11 -10 -10 -12 -11 -10 -9 -8 -10 -10 -9 -9 -9 -10 -11 -11 -11 -10 -10 -10 -9 -9 -8 -8 -7 -8 -7 -7 -8 -8 -8 -8 -8 -7 -7 -7 -7
-12 -12 -13 -13 -12 -12 -12 -11 -11 -11 -11 -12 -12 -10 -9 -10 -11 -11 -10 -9 -9 -10 -12 -10 -11 -10 -10 -10 -8 -9 -8 -8 -7 -7 -7 -9 -9 -8 -8 -8 -8 -7 -7 -7
-14 -15 -13 -13 -12 -11 -11 -11 -11 -11 -12 -12 -12 -12 -10 -10 -11 -11 -12 -11 -11 -10 -10 -10 -10 -10 -9 -9 -10 -9 -9 -9 -9 -8 -8 -8 -9 -9 -8 -8 -8 -8 -8 -8
-14 -14 -14 -13 -12 -13 -11 -13 -14 -14 -15 -13 -13 -13 -12 -12 -11 -11 -11 -11 -11 -10 -10 -10 -9 -9 -9 -10 -10 -10 -10 -10 -9 -9 -8 -8 -8 -9 -9 -9 -9 -8 -8 -8
-14 -14 -14 -13 -14 -14 -14 -17 -17 -17 -16 -15 -15 -14 -13 -13 -11 -10 -10 -11 -11 -11 -10 -9 -9 -9 -9 -10 -10 -10 -10 -10 -11 -11 -11 -10 -9 -9 -9 -9 -10 -9 -8 -8
-15 -15 -15 -15 -15 -17 -17 -17 -17 -16 -16 -15 -15 -15 -13 -13 -12 -12 -11 -11 -11 -11 -10 -10 -10 -9 -9 -9 -9 -9 -9 -9 -11 -11 -11 -11 -11 -10 -10 -10 -10 -10 -9 -9
-15 -15 -15 -16 -17 -18 -18 -18 -17 -16 -16 -15 -14 -15 -13 -13 -12 -12 -11 -11 -11 -11 -10 -10 -10 -10 -10 -9 -9 -8 -8 -10 -11 -11 -11 -11 -11 -11 -11 -11 -10 -10 -10 -10
-14 -15 -15 -16 -17 -17 -17 -17 -17 -17 -16 -15 -15 -15 -14 -14 -14 -15 -14 -12 -11 -10 -12 -11 -11 -10 -10 -10 -11 -10 -11 -11 -11 -11 -11 -11 -11 -11 -11 -10 -10 -10 -10 -10
-14 -16 -16 -17 -17 -17 -18 -17 -16 -16 -17 -15 -16 -16 -14 -14 -14 -14 -14 -13 -13 -12 -12 -12 -11 -11 -12 -11 -10 -11 -11 -11 -11 -11 -11 -11 -11 -10 -11 -11 -10 -10 -10 -10
-16 -17 -16 -16 -17 -16 -17 -17 -17 -15 -16 -16 -15 -15 -14 -14 -14 -14 -14 -14 -14 -14 -13 -12 -12 -12 -12 -12 -12 -12 -12 -11 -11 -11 -11 -11 -11 -11 -11 -11 -11 -11 -11 -11
-16 -17 -17 -17 -17 -17 -17 -17 -16 -16 -16 -15 -15 -15 -15 -14 -14 -14 -15 -15 -15 -14 -14 -13 -13 -12 -12 -12 -12 -12 -12 -12 -11 -12 -12 -12 -11 -11 -11 -11 -11 -11 -12 -11
-16 -17 -16 -16 -17 -17 -17 -17 -17 -17 -17 -16 -16 -14 -14 -14 -14 -14 -15 -15 -15 -14 -14 -14 -13 -13 -13 -13 -12 -12 -12 -12 -12 -12 -12 -13 -12 -11 -12 -12 -11 -11 -11 -12
-16 -16 -16 -16 -17 -17 -17 -16 -16 -16 -16 -16 -15 -15 -14 -14 -14 -14 -14 -14 -14 -14 -14 -14 -13 -13 -12 -12 -12 -12 -12 -13 -13 -13 -13 -13 -12 -12 -12 -12 -12 -12 -12 -12
-17 -16 -16 -16 -16 -16 -17 -17 -16 -16 -16 -16 -15 -15 -15 -14 -14 -14 -14 -14 -13 -15 -14 -14 -14 -13 -13 -13 -13 -13 -13 -13 -13 -13 -13 -13 -13 -13 -12 -12 -12 -12 -12 -12
-16 -16 -16 -16 -16 -16 -17 -17 -16 -16 -16 -15 -15 -15 -15 -15 -15 -14 -14 -14 -14 -14 -14 -14 -13 -13 -14 -14 -13 -13 -13 -13 -13 -13 -13 -13 -13 -12 -12 -12 -12 -12 -11 -12
-16 -15 -15 -16 -16 -16 -16 -16 -16 -16 -15 -15 -15 -15 -15 -15 -14 -15 -14 -14 -14 -14 -14 -14 -14 -14 -14 -13 -13 -13 -13 -13 -13 -13 -13 -12 -12 -12 -11 -11 -12 -12 -13 -13
-16 -16 -15 -15 -16 -15 -15 -16 -16 -16 -16 -15 -15 -15 -14 -14 -14 -15 -15 -14 -15 -14 -14 -14 -14 -14 -14 -13 -13 -14 -13 -13 -13 -13 -12 -12 -12 -13 -14 -14 -14 -15 -15 -15
-16 -16 -16 -16 -16 -16 -16 -15 -15 -16 -16 -15 -15 -15 -14 -14 -14 -15 -15 -14 -14 -15 -14 -15 -15 -14 -14 -14 -14 -13 -13 -13 -13 -13 -13 -14 -14 -14 -14 -14 -14 -15 -15 -15
-16 -17 -17 -16 -16 -16 -17 -16 -16 -15 -15 -15 -15 -15 -15 -15 -15 -15 -15 -15 -15 -15 -15 -14 -14 -14 -14 -14 -14 -13 -13 -13 -14 -14 -14 -14 -14 -14 -14 -14 -14 -14 -14 -15
-16 -17 -17 -16 -16 -16 -16 -16 -16 -16 -16 -16 -15 -15 -15 -15 -15 -16 -16 -16 -15 -15 -15 -15 -14 -14 -14 -14 -14 -14 -13 -13 -14 -14 -14 -14 -14 -14 -14 -14 -14 -14 -15 -15
-15 -16 -16 -16 -16 -16 -17 -16 -16 -16 -15 -15 -14 -15 -15 -16 -15 -15 -15 -15 -15 -15 -15 -15 -14 -14 -14 -14 -14 -14 -14 -13 -13 -14 -14 -14 -14 -14 -14 -15 -14 -14 -15 -15
-15 -15 -16 -16 -16 -16 -16 -16 -16 -15 -15 -15 -16 -16 -16 -16 -16 -16 -16 -16 -15 -15 -15 -15 -14 -14 -14 -14 -14 -13 -13 -13 -13 -13 -14 -14 -14 -14 -14 -14 -15 -14 -14 -15
-16 -16 -15 -15 -16 -16 -17 -16 -16 -16 -16 -16 -17 -16 -16 -16 -16 -16 -16 -15 -15 -15 -14 -14 -14 -14 -14 -14 -14 -13 -13 -13 -13 -13 -13 -13 -14 -14 -14 -14 -14 -14 -14 -14
-16 -16 -16 -16 -16 -16 -16 -16 -16 -16 -16 -16 -16 -16 -16 -16 -16 -16 -16 -16 -15 -15 -14 -14 -14 -14 -14 -14 -14 -14 -13 -13 -13 -13 -13 -14 -14 -15 -14 -14 -14 -14 -14 -15
-16 -16 -15 -16 -16 -16 -16 -17 -17 -17 -16 -16 -16 -16 -16 -16 -16 -16 -16 -15 -15 -15 -15 -15 -15 -14 -14 -14 -14 -14 -14 -13 -14 -14 -14 -14 -14 -14 -14 -14 -14 -14 -15 -14
-16 -16 -16 -17 -17 -17 -17 -17 -17 -16 -16 -16 -16 -16 -16 -16 -16 -16 -16 -15 -15 -15 -15 -15 -15 -14 -14 -14 -14 -14 -14 -14 -14 -14 -14 -14 -14 -14 -14 -14 -15 -14 -14 -14

GFSCGP_500_temp_141.txt.gz
Temp
-13 -13 -12 -12 -11 -11 -11 -11 -10 -10 -11 -11 -10 -9 -10 -10 -9 -10 -10 -10 -10 -10 -9 -9 -9 -9 -8 -8 -8 -8 -7 -7 -7 -6 -6 -6 -7 -7 -7 -8 -8 -8 -8 -8
-13 -12 -13 -13 -12 -12 -11 -11 -11 -11 -12 -11 -11 -10 -9 -10 -10 -9 -9 -10 -10 -10 -9 -9 -9 -8 -8 -10 -9 -9 -9 -8 -8 -7 -8 -8 -7 -6 -7 -8 -8 -8 -8 -8
-13 -14 -14 -13 -12 -12 -12 -11 -12 -12 -12 -12 -12 -11 -10 -9 -10 -10 -9 -10 -10 -9 -10 -10 -10 -9 -9 -9 -9 -10 -11 -9 -8 -8 -8 -7 -7 -7 -8 -7 -8 -8 -8 -8
-15 -14 -13 -12 -12 -12 -11 -12 -12 -12 -13 -13 -12 -11 -10 -10 -9 -10 -10 -10 -10 -11 -10 -10 -9 -9 -9 -9 -10 -11 -11 -10 -9 -8 -8 -8 -8 -8 -8 -7 -8 -9 -8 -9
-15 -14 -13 -13 -13 -13 -13 -13 -13 -13 -13 -14 -13 -13 -11 -11 -9 -9 -10 -11 -11 -11 -10 -9 -9 -9 -9 -9 -10 -11 -11 -12 -12 -10 -9 -9 -9 -8 -8 -8 -9 -10 -9 -9
-15 -14 -13 -14 -14 -12 -15 -14 -15 -16 -16 -15 -13 -13 -11 -11 -10 -11 -11 -12 -12 -12 -11 -10 -10 -10 -10 -10 -10 -11 -11 -12 -12 -12 -11 -11 -9 -9 -8 -8 -9 -9 -10 -10
-14 -14 -14 -14 -13 -15 -15 -17 -18 -18 -18 -11 -13 -15 -11 -12 -13 -12 -13 -13 -13 -13 -13 -12 -11 -11 -10 -11 -11 -11 -12 -11 -11 -11 -11 -12 -12 -13 -12 -11 -11 -11 -11 -11
-14 -14 -14 -14 -14 -15 -17 -18 -18 -17 -17 -14 -16 -15 -12 -14 -14 -13 -13 -13 -13 -12 -12 -12 -11 -11 -11 -13 -13 -12 -12 -12 -12 -11 -12 -13 -13 -13 -13 -12 -12 -12 -12 -12
-15 -14 -15 -15 -15 -16 -18 -18 -17 -18 -17 -17 -16 -15 -15 -15 -14 -13 -13 -13 -13 -12 -12 -12 -11 -12 -12 -13 -13 -13 -13 -13 -13 -13 -13 -13 -13 -12 -12 -12 -11 -11 -11 -11
-16 -16 -16 -17 -18 -18 -18 -18 -18 -17 -17 -17 -16 -15 -15 -14 -14 -14 -13 -12 -12 -12 -12 -13 -12 -12 -13 -14 -14 -14 -14 -14 -13 -13 -12 -12 -12 -12 -12 -11 -12 -11 -11 -11
-16 -16 -17 -18 -18 -17 -17 -17 -17 -17 -17 -16 -16 -15 -14 -14 -14 -14 -14 -14 -13 -14 -14 -14 -14 -14 -14 -14 -14 -13 -13 -13 -13 -12 -13 -13 -12 -12 -12 -12 -12 -12 -12 -12
-16 -17 -17 -17 -17 -18 -17 -17 -17 -17 -17 -16 -17 -16 -15 -15 -15 -14 -14 -15 -15 -15 -15 -15 -14 -14 -14 -13 -13 -13 -13 -14 -14 -13 -13 -13 -13 -13 -13 -13 -13 -12 -12 -12
-16 -16 -17 -17 -17 -17 -17 -17 -17 -17 -17 -17 -16 -16 -16 -15 -15 -15 -15 -15 -14 -14 -14 -14 -14 -14 -13 -13 -13 -13 -14 -14 -13 -13 -13 -13 -13 -13 -13 -13 -12 -12 -12 -12
-17 -17 -16 -16 -17 -17 -17 -17 -17 -17 -17 -16 -16 -15 -15 -15 -14 -14 -14 -14 -14 -14 -13 -14 -15 -14 -14 -14 -14 -14 -14 -13 -12 -13 -13 -13 -13 -13 -13 -12 -12 -12 -12 -12
-17 -17 -17 -17 -17 -17 -17 -17 -17 -17 -16 -16 -15 -15 -15 -15 -15 -14 -14 -14 -14 -14 -14 -15 -15 -14 -14 -14 -15 -14 -14 -14 -14 -13 -13 -13 -12 -12 -12 -12 -12 -12 -12 -13
-17 -16 -16 -16 -16 -16 -17 -16 -16 -16 -17 -16 -15 -15 -16 -16 -15 -15 -15 -15 -14 -15 -14 -15 -14 -15 -14 -14 -14 -14 -14 -14 -13 -13 -13 -13 -13 -12 -12 -12 -13 -13 -13 -14
-17 -17 -16 -16 -16 -16 -17 -16 -16 -16 -15 -15 -15 -15 -15 -15 -15 -15 -15 -15 -15 -14 -15 -15 -15 -15 -14 -14 -14 -14 -14 -13 -13 -13 -13 -13 -13 -13 -13 -13 -14 -14 -14 -13
-16 -17 -17 -17 -17 -16 -16 -16 -16 -16 -16 -15 -15 -15 -15 -15 -15 -15 -15 -15 -15 -15 -15 -15 -15 -15 -15 -14 -14 -14 -14 -14 -13 -13 -13 -13 -13 -13 -13 -14 -14 -14 -13 -14
-16 -17 -17 -16 -16 -16 -16 -16 -16 -16 -16 -15 -15 -15 -15 -15 -15 -15 -15 -16 -16 -16 -16 -16 -15 -15 -15 -15 -14 -14 -14 -14 -13 -13 -13 -13 -13 -13 -13 -13 -14 -14 -14 -14
-17 -16 -16 -16 -16 -16 -16 -16 -15 -15 -15 -15 -14 -15 -15 -15 -15 -15 -15 -15 -15 -16 -16 -16 -15 -15 -14 -14 -14 -14 -14 -13 -13 -13 -14 -13 -13 -13 -13 -13 -14 -14 -14 -15
-16 -16 -16 -16 -16 -16 -16 -16 -16 -15 -15 -15 -15 -15 -15 -15 -15 -15 -15 -15 -15 -15 -15 -15 -15 -15 -14 -14 -14 -14 -13 -14 -14 -14 -14 -13 -13 -13 -13 -13 -14 -14 -14 -14
-16 -16 -16 -16 -16 -16 -16 -16 -16 -16 -16 -16 -16 -16 -16 -16 -15 -16 -16 -16 -16 -16 -16 -15 -15 -15 -15 -14 -14 -14 -14 -14 -14 -14 -14 -13 -13 -13 -13 -13 -14 -14 -14 -14
-16 -16 -16 -15 -16 -16 -16 -16 -17 -17 -17 -17 -16 -16 -16 -15 -15 -15 -15 -16 -16 -16 -15 -15 -15 -15 -14 -14 -14 -14 -14 -14 -14 -14 -14 -13 -13 -13 -14 -14 -14 -14 -14 -14
-15 -15 -16 -15 -16 -16 -16 -16 -16 -17 -17 -17 -17 -16 -16 -16 -16 -16 -16 -16 -16 -16 -15 -15 -15 -14 -14 -14 -14 -14 -14 -14 -14 -14 -13 -13 -13 -14 -14 -14 -14 -14 -14 -14
-15 -15 -16 -15 -16 -16 -16 -16 -17 -17 -17 -17 -17 -16 -16 -16 -16 -16 -16 -16 -16 -16 -16 -15 -15 -15 -14 -14 -14 -14 -14 -14 -14 -14 -14 -14 -14 -14 -14 -14 -14 -14 -13 -14
-16 -16 -16 -16 -17 -17 -17 -17 -17 -17 -17 -17 -16 -16 -16 -16 -16 -16 -16 -16 -16 -16 -15 -15 -15 -15 -15 -15 -15 -15 -14 -14 -14 -14 -14 -14 -14 -14 -14 -14 -14 -13 -13 -14

GFSCGP_500_temp_144.txt.gz
Temp
-16 -14 -12 -12 -12 -12 -11 -11 -11 -11 -11 -11 -10 -10 -11 -11 -11 -11 -11 -10 -11 -11 -10 -9 -9 -9 -9 -9 -8 -9 -8 -8 -8 -7 -8 -8 -8 -8 -8 -8 -8 -7 -8 -8
-16 -15 -14 -14 -13 -12 -12 -11 -12 -12 -12 -11 -11 -10 -11 -12 -11 -11 -11 -11 -10 -10 -10 -10 -10 -10 -9 -9 -9 -9 -9 -8 -8 -8 -9 -8 -8 -8 -8 -8 -7 -8 -8 -8
-15 -15 -14 -14 -13 -13 -12 -12 -12 -12 -12 -12 -12 -11 -10 -11 -11 -10 -10 -10 -11 -11 -10 -10 -10 -10 -10 -10 -9 -9 -9 -8 -8 -9 -9 -9 -9 -8 -8 -7 -7 -8 -8 -8
-16 -16 -15 -14 -14 -13 -12 -12 -12 -12 -13 -12 -12 -11 -10 -10 -10 -11 -10 -10 -10 -10 -11 -10 -10 -10 -10 -10 -9 -10 -9 -9 -9 -9 -9 -9 -9 -9 -8 -8 -8 -8 -8 -8
-16 -15 -15 -14 -13 -13 -13 -13 -13 -13 -13 -13 -12 -11 -10 -11 -10 -10 -11 -11 -11 -11 -10 -11 -10 -10 -10 -10 -10 -10 -10 -10 -10 -9 -9 -9 -9 -9 -9 -8 -8 -8 -8 -8
-17 -17 -16 -16 -15 -15 -16 -14 -14 -14 -13 -12 -12 -12 -10 -10 -10 -10 -10 -11 -12 -12 -11 -10 -10 -10 -10 -11 -10 -10 -10 -10 -10 -10 -10 -9 -9 -10 -9 -9 -8 -8 -8 -8
-16 -16 -16 -15 -15 -14 -14 -14 -13 -14 -12 -11 -13 -13 -10 -10 -11 -10 -10 -11 -11 -12 -11 -10 -10 -11 -11 -11 -10 -10 -10 -11 -11 -10 -11 -11 -10 -10 -9 -9 -9 -9 -8 -8
-16 -15 -14 -14 -14 -14 -13 -13 -13 -12 -12 -13 -14 -12 -11 -11 -11 -12 -12 -13 -12 -11 -10 -11 -11 -11 -12 -12 -11 -11 -12 -12 -12 -12 -12 -12 -12 -11 -11 -11 -11 -10 -10 -10
-15 -15 -15 -15 -14 -14 -14 -13 -15 -15 -15 -15 -13 -12 -12 -12 -12 -13 -13 -13 -13 -12 -11 -12 -12 -12 -12 -12 -12 -12 -13 -13 -13 -13 -12 -12 -12 -12 -13 -13 -13 -12 -12 -12
-15 -15 -15 -15 -14 -14 -15 -16 -15 -16 -18 -17 -16 -15 -15 -14 -14 -14 -14 -14 -14 -13 -13 -13 -13 -13 -12 -13 -12 -13 -14 -15 -15 -14 -14 -13 -13 -13 -13 -12 -12 -12 -12 -12
-16 -16 -16 -15 -15 -15 -15 -16 -17 -18 -18 -17 -17 -16 -16 -16 -16 -15 -15 -15 -15 -14 -14 -14 -13 -13 -13 -14 -14 -15 -16 -15 -15 -14 -14 -13 -13 -12 -12 -12 -12 -12 -12 -12
-16 -17 -16 -16 -17 -17 -17 -17 -17 -18 -17 -17 -17 -16 -16 -16 -15 -15 -15 -15 -15 -15 -15 -14 -14 -15 -14 -15 -15 -15 -15 -15 -15 -15 -14 -13 -13 -13 -13 -13 -12 -12 -12 -12
-16 -16 -17 -17 -17 -18 -18 -18 -18 -18 -17 -17 -17 -16 -16 -15 -15 -15 -14 -14 -15 -15 -15 -14 -14 -15 -15 -15 -15 -15 -15 -15 -15 -14 -14 -14 -14 -14 -13 -13 -13 -13 -13 -13
-17 -16 -17 -17 -17 -17 -17 -17 -17 -18 -18 -17 -16 -16 -16 -15 -15 -15 -14 -14 -15 -15 -15 -15 -15 -14 -15 -15 -14 -14 -14 -14 -14 -14 -14 -14 -14 -14 -14 -13 -13 -13 -12 -12
-17 -17 -17 -17 -17 -17 -17 -18 -18 -18 -18 -17 -17 -17 -16 -15 -15 -15 -15 -14 -15 -15 -15 -15 -15 -15 -15 -15 -15 -14 -14 -14 -14 -14 -14 -14 -14 -14 -13 -13 -13 -13 -12 -12
-17 -17 -17 -17 -17 -17 -17 -17 -17 -17 -17 -17 -17 -16 -16 -16 -16 -15 -14 -15 -15 -15 -15 -15 -15 -15 -15 -14 -15 -14 -14 -14 -14 -14 -14 -14 -14 -13 -13 -13 -13 -13 -13 -13
-16 -17 -17 -17 -17 -17 -17 -17 -17 -17 -17 -16 -16 -16 -16 -16 -16 -16 -15 -15 -15 -15 -15 -15 -15 -15 -15 -15 -15 -14 -14 -14 -14 -14 -14 -14 -14 -13 -13 -13 -13 -13 -13 -13
-15 -16 -17 -17 -17 -17 -16 -16 -16 -17 -16 -16 -16 -16 -16 -16 -16 -16 -16 -16 -16 -16 -15 -15 -14 -15 -15 -15 -14 -14 -14 -14 -14 -14 -14 -14 -14 -13 -13 -13 -13 -13 -13 -13
-16 -16 -16 -16 -17 -16 -16 -16 -17 -16 -16 -16 -16 -15 -15 -15 -15 -16 -15 -16 -16 -16 -15 -15 -16 -15 -15 -15 -14 -14 -14 -14 -14 -14 -14 -13 -13 -13 -13 -13 -13 -13 -13 -13
-17 -17 -17 -17 -17 -15 -16 -16 -16 -16 -15 -16 -16 -15 -15 -15 -16 -16 -16 -15 -15 -15 -15 -16 -15 -16 -15 -15 -15 -15 -15 -14 -14 -14 -14 -13 -13 -13 -13 -13 -13 -13 -13 -13
-16 -17 -17 -16 -16 -15 -15 -16 -16 -16 -16 -16 -16 -15 -15 -15 -15 -15 -15 -15 -15 -15 -15 -15 -15 -15 -15 -15 -15 -15 -14 -14 -14 -14 -14 -14 -14 -13 -13 -13 -13 -13 -13 -14
-16 -16 -16 -16 -16 -16 -16 -16 -16 -16 -16 -16 -16 -15 -16 -16 -16 -15 -15 -15 -15 -15 -15 -15 -15 -15 -15 -15 -15 -15 -15 -15 -15 -14 -14 -14 -14 -13 -13 -13 -13 -14 -14 -14
-17 -16 -16 -16 -16 -16 -16 -16 -16 -16 -16 -16 -16 -15 -15 -16 -15 -15 -15 -15 -15 -15 -15 -16 -16 -16 -16 -16 -15 -15 -15 -14 -14 -14 -14 -14 -13 -13 -13 -13 -14 -14 -14 -14
-16 -16 -16 -16 -16 -16 -16 -16 -16 -16 -16 -16 -16 -15 -15 -15 -15 -15 -15 -15 -15 -15 -16 -16 -16 -16 -15 -15 -15 -15 -14 -14 -14 -14 -14 -14 -13 -13 -13 -14 -14 -14 -14 -14
-16 -15 -15 -16 -16 -16 -16 -16 -15 -15 -16 -16 -15 -15 -16 -16 -15 -15 -15 -15 -16 -16 -16 -16 -16 -15 -15 -15 -15 -15 -14 -14 -14 -14 -14 -14 -14 -14 -14 -14 -14 -14 -14 -14
-15 -16 -15 -15 -16 -16 -16 -16 -16 -16 -16 -16 -16 -16 -16 -16 -16 -16 -16 -16 -16 -16 -16 -16 -16 -15 -15 -15 -15 -15 -14 -14 -14 -14 -14 -14 -14 -14 -14 -14 -14 -14 -14 -14

GFSCGP_500_temp_147.txt.gz
Temp
-17 -16 -14 -13 -13 -14 -13 -13 -12 -12 -12 -11 -11 -10 -11 -11 -11 -11 -11 -10 -10 -10 -9 -9 -9 -9 -9 -9 -9 -9 -9 -9 -9 -9 -9 -9 -8 -8 -8 -8 -8 -8 -8 -8
-17 -16 -16 -15 -14 -14 -13 -13 -13 -13 -12 -12 -11 -11 -12 -11 -11 -11 -10 -10 -11 -11 -10 -10 -9 -10 -10 -10 -10 -9 -9 -9 -9 -9 -9 -9 -9 -9 -9 -9 -9 -8 -8 -8
-17 -17 -16 -16 -15 -15 -14 -13 -13 -13 -13 -12 -12 -11 -11 -11 -11 -11 -11 -10 -10 -9 -10 -10 -10 -10 -10 -10 -10 -10 -9 -9 -9 -9 -9 -9 -9 -9 -9 -9 -9 -9 -8 -8
-17 -17 -16 -16 -16 -15 -15 -14 -14 -13 -13 -13 -12 -11 -11 -11 -11 -11 -11 -10 -11 -11 -11 -11 -11 -11 -11 -11 -10 -10 -10 -10 -10 -9 -9 -9 -9 -9 -9 -9 -9 -9 -9 -9
-18 -17 -16 -16 -16 -15 -15 -14 -14 -13 -13 -13 -13 -12 -11 -11 -11 -10 -11 -11 -11 -11 -11 -11 -11 -11 -11 -11 -11 -10 -10 -10 -10 -11 -10 -10 -9 -9 -9 -8 -8 -8 -8 -8
-18 -18 -17 -17 -16 -16 -16 -15 -14 -13 -13 -13 -12 -12 -12 -11 -10 -11 -11 -11 -11 -11 -11 -11 -11 -11 -11 -11 -11 -11 -11 -11 -11 -11 -10 -10 -10 -9 -9 -8 -8 -8 -8 -7
-17 -17 -17 -17 -17 -17 -16 -15 -14 -14 -13 -12 -12 -12 -11 -11 -11 -11 -11 -11 -11 -11 -11 -11 -11 -11 -10 -10 -11 -11 -11 -11 -11 -11 -10 -10 -10 -9 -9 -8 -8 -8 -9 -9
-16 -16 -16 -16 -16 -14 -14 -14 -13 -13 -12 -12 -12 -12 -11 -11 -11 -11 -11 -11 -11 -11 -11 -11 -11 -11 -11 -12 -12 -12 -12 -12 -11 -11 -11 -10 -10 -9 -10 -9 -9 -9 -9 -10
-17 -17 -17 -17 -16 -16 -14 -14 -14 -13 -13 -13 -12 -12 -12 -11 -11 -11 -11 -12 -12 -12 -12 -12 -12 -12 -12 -12 -13 -13 -12 -12 -12 -11 -11 -11 -10 -10 -10 -11 -10 -11 -11 -11
-17 -16 -17 -16 -16 -15 -15 -15 -14 -13 -13 -13 -12 -12 -12 -12 -12 -12 -12 -12 -12 -12 -12 -12 -12 -13 -13 -13 -13 -13 -13 -13 -13 -12 -12 -11 -11 -12 -12 -13 -13 -13 -12 -12
-16 -16 -15 -15 -14 -14 -14 -14 -14 -14 -14 -13 -13 -14 -14 -14 -14 -14 -14 -13 -13 -13 -13 -13 -13 -14 -14 -13 -13 -13 -13 -13 -13 -13 -13 -13 -13 -13 -13 -12 -12 -12 -12 -13
-16 -16 -16 -15 -16 -16 -16 -15 -15 -15 -15 -15 -16 -16 -16 -16 -15 -15 -15 -15 -14 -14 -14 -13 -14 -14 -14 -14 -14 -14 -14 -14 -14 -14 -14 -14 -13 -13 -13 -12 -13 -13 -13 -13
-16 -16 -16 -16 -16 -17 -16 -16 -16 -17 -17 -17 -17 -17 -17 -16 -16 -16 -16 -16 -15 -15 -15 -15 -15 -14 -15 -15 -15 -15 -15 -15 -15 -14 -14 -13 -13 -13 -13 -14 -14 -14 -14 -14
-17 -17 -17 -16 -16 -16 -17 -16 -17 -17 -17 -17 -16 -16 -16 -16 -16 -16 -16 -16 -15 -15 -15 -14 -15 -15 -15 -15 -15 -15 -15 -15 -15 -14 -14 -13 -14 -14 -14 -13 -13 -13 -13 -13
-17 -17 -17 -17 -17 -17 -17 -17 -17 -17 -17 -17 -16 -16 -16 -16 -16 -15 -15 -15 -14 -14 -14 -15 -15 -15 -15 -15 -15 -15 -15 -15 -14 -14 -13 -13 -13 -13 -13 -14 -14 -14 -13 -13
-17 -18 -18 -17 -17 -17 -17 -17 -18 -18 -17 -17 -16 -16 -16 -16 -16 -16 -15 -14 -14 -14 -14 -15 -14 -14 -15 -15 -15 -15 -15 -14 -14 -13 -13 -13 -14 -14 -14 -14 -14 -13 -13 -13
-17 -17 -17 -17 -17 -17 -17 -17 -17 -17 -17 -17 -16 -16 -16 -16 -16 -17 -15 -15 -14 -14 -15 -15 -15 -15 -15 -15 -15 -15 -15 -14 -14 -13 -13 -14 -14 -14 -14 -14 -14 -13 -13 -12
-17 -18 -17 -17 -17 -17 -17 -17 -17 -17 -16 -16 -16 -16 -16 -16 -16 -16 -16 -15 -15 -15 -15 -15 -15 -14 -14 -14 -15 -15 -14 -14 -14 -14 -14 -14 -13 -14 -14 -14 -13 -13 -13 -13
-17 -17 -17 -17 -17 -17 -17 -17 -17 -16 -16 -16 -16 -16 -16 -16 -16 -16 -15 -15 -15 -15 -15 -15 -15 -15 -15 -14 -15 -15 -15 -15 -15 -14 -14 -14 -14 -14 -14 -13 -13 -13 -13 -13
-17 -17 -17 -17 -17 -16 -16 -17 -16 -16 -16 -16 -16 -16 -16 -16 -16 -15 -15 -15 -15 -15 -15 -15 -15 -15 -15 -15 -15 -15 -15 -15 -15 -14 -14 -14 -14 -13 -14 -13 -13 -13 -13 -13
-16 -16 -16 -16 -16 -16 -16 -16 -16 -16 -17 -16 -16 -16 -16 -15 -15 -15 -15 -15 -15 -15 -15 -15 -15 -15 -16 -16 -16 -16 -16 -15 -15 -14 -14 -14 -14 -14 -13 -13 -13 -13 -13 -13
-17 -16 -16 -16 -16 -16 -16 -16 -16 -17 -17 -16 -16 -16 -16 -16 -16 -16 -16 -16 -16 -16 -16 -16 -16 -16 -16 -16 -15 -15 -15 -14 -14 -14 -14 -14 -14 -14 -13 -13 -13 -13 -13 -14
-17 -17 -16 -16 -16 -16 -17 -17 -17 -17 -17 -17 -17 -17 -16 -16 -16 -16 -16 -16 -16 -16 -15 -15 -15 -15 -15 -15 -15 -15 -15 -15 -15 -15 -14 -14 -14 -13 -13 -13 -13 -13 -14 -14
-17 -16 -16 -16 -16 -16 -16 -17 -17 -16 -16 -16 -16 -16 -17 -16 -15 -15 -15 -15 -15 -15 -15 -15 -15 -15 -15 -16 -15 -15 -15 -15 -15 -15 -14 -14 -14 -14 -13 -13 -13 -14 -14 -14
-16 -16 -16 -16 -16 -16 -17 -17 -16 -16 -16 -16 -16 -17 -17 -16 -16 -16 -16 -16 -16 -16 -16 -16 -16 -15 -15 -15 -15 -15 -15 -15 -15 -14 -14 -14 -14 -14 -13 -13 -13 -14 -14 -14
-16 -16 -16 -16 -16 -16 -16 -16 -16 -16 -15 -16 -16 -16 -16 -16 -16 -16 -16 -16 -16 -16 -16 -16 -15 -15 -15 -15 -15 -15 -15 -15 -15 -15 -14 -14 -14 -14 -14 -14 -14 -14 -14 -14